{"data":{"norad_id":54053,"epoch":"2026-05-25T00:22:14.840256Z","epoch_age_seconds":63827,"freshness":"FRESH","line1":"1 54053U 22136C   26145.01544954  .00000154  00000+0  27752-4 0  9997","line2":"2 54053  53.2149   1.6871 0001347  89.0165 271.0982 15.08840843198367","mean_motion":15.08840843,"eccentricity":0.0001347,"inclination_deg":53.2149,"raan_deg":1.6871,"arg_perigee_deg":89.0165,"mean_anomaly_deg":271.0982,"bstar":2.7752e-5,"rev_number":19836,"period_min":95.437501356132,"perigee_km":538.80897411024,"apogee_km":540.67265039286,"semimajor_km":6917.8778122516,"source":"CELESTRAK","updated_at":"2026-05-25T13:38:17.645449Z"}}